Location: Mount Kobau Star Party
(49.1167°N, 119.7333°W)
Time: 00:48:29
(UTC-08:00)

Tiangong 2 - Visible Passes

Search period start: 18 December 2017 00:00
Search period end: 28 December 2017 00:00
Orbit: 386 x 389 km, 42.8° (Epoch: 17 December)

Date Brightness Start Highest point End Pass type
(mag) Time Alt. Az. Time Alt. Az. Time Alt. Az.
22 Dec 4.2 18:42:49 10° SSW 18:42:52 10° SSW 18:42:52 10° SSW visible
23 Dec 3.7 17:45:35 10° S 17:46:32 11° SSE 17:47:11 11° SE visible
24 Dec 3.3 18:21:58 10° SW 18:23:45 19° S 18:23:45 19° S visible
25 Dec 3.4 17:24:04 10° SSW 17:26:04 16° SSE 17:28:01 10° ESE visible
25 Dec 4.1 18:59:36 10° SW 19:00:18 14° SW 19:00:18 14° SW visible
26 Dec 2.8 18:01:20 10° SW 18:03:57 24° S 18:04:32 22° SSE visible
27 Dec 3.2 17:03:11 10° SW 17:05:37 20° SSE 17:08:02 10° ESE visible
27 Dec 3.3 18:39:13 10° WSW 18:41:03 22° SSW 18:41:03 22° SSW visible
